Location: C�an Torras
(41.5052°N, 1.9280°E)
Time: 21:53:59
(UTC+00:00)

Lacrosse 5 - Pass Details

Date: 20 January 2021
Orbit: 715 x 724 km, 57.0° (Epoch: 03 March)

Event Time Altitude Azimuth Distance (km) Brightness Sun altitude
Rises 19:17:08 0° 313° (NW) 3,121 5.8 -26.6°
Reaches altitude 10° 19:19:32 10° 311° (NW) 2,199 4.9 -27.1°
Enters shadow 19:24:16 70° 258° (WSW) 761 2.0 -28.0°
